TIME,DELAY(SENSOR),PRES,T(CTD),SAL,OXYGEN,RAWTEMP,T(OPTODE),TCPHASE,FLUOR,BETA(BETA700),BETA(BETA412),BETA(BETA440),CDOM,C(CSC),ED(ED411.90),ED(ED443.80),ED(ED489.40),ED(ED554.70),LU(LU412.20),LU(LU443.80),LU(LU489.40),LU(LU555.00),COMP,TILTX,TILTX(TILTY),CHECK
1342798417,5802,497.4100036621094000,16.8628005981445300,36.3418006896972660,222.7218017578125000,207.5346069335937500,16.8525390625000000,32.6362991333007800,50,106,100,83,68,15394,2147480054,2147771291,2147566107,2147800310,2147319552,2147472137,2147715574,2148247734,1237,7,13,34015
1342798540,5805,486.2200012207031000,16.9640007019042970,36.3664016723632800,226.1638031005859400,203.9907989501953000,16.9603099822998050,32.4102897644043000,50,106,100,84,68,15391,2147481728,2147771547,2147561197,2147799780,2147314761,2147475940,2147715766,2148247542,1762,7,13,53138
1342798661,5804,475.3299865722656000,17.0543003082275400,36.3843002319335940,227.9308013916015600,200.9071960449218800,17.0540904998779300,32.2782402038574200,50,109,99,83,67,15391,2147481033,2147770724,2147562349,2147796772,2147315739,2147477028,2147712274,2148243529,1746,7,13,60937
1342798785,5802,464.1900024414062500,17.1760005950927730,36.4080009460449200,229.8365936279297000,197.0518035888672000,17.1713600158691400,32.1298789978027340,50,108,99,85,68,15392,2147484379,2147768420,2147560667,2147799350,2147315766,2147476050,2147714432,2148246875,3182,7,13,33770
1342798906,5804,453.2999877929687500,17.2924995422363280,36.4309005737304700,231.6197967529297000,193.0908050537109400,17.2918605804443360,31.9871597290039060,50,107,100,84,68,15390,2147484800,2147765732,2147559177,2147799332,2147309284,2147477193,2147712640,2148240832,639,7,12,17656
1342799027,5804,442.4899902343750000,17.3675003051757800,36.4463005065918000,233.7066955566406200,190.6844024658203000,17.3650608062744140,31.8519001007080080,50,108,101,85,66,15387,2147483099,2147767149,2147561078,2147797458,2147305334,2147474240,2147709293,2148244772,955,7,12,20267
1342799150,5802,431.6700134277344000,17.4356994628906250,36.4580993652343750,233.5509033203125000,188.1846008300781200,17.4411201477050780,31.8256206512451170,50,106,99,83,67,15392,2147483648,2147767506,2147562550,2147797760,2147316342,2147473801,2147709101,2148243584,1062,7,13,38019
1342799282,5803,420.4400024414062500,17.5321006774902340,36.4767990112304700,235.0673980712890600,185.1784057617187500,17.5326004028320300,31.7110195159912100,50,108,99,84,66,15391,2147480036,2147768630,2147561069,2147794651,2147311954,2147478226,2147713033,2148241773,1092,7,13,53355
1342799417,5805,409.2900085449219000,17.6105003356933600,36.4910011291503900,235.8497924804687500,182.7427062988281200,17.6067199707031250,31.6405506134033200,50,106,99,83,66,15392,2147482166,2147765458,2147562825,2147794642,2147307456,2147477622,2147710299,2148244946,1393,7,13,18227
1342799549,5804,398.4700012207031000,17.6711006164550780,36.5032005310058600,236.7151947021484400,180.7451934814453000,17.6675090789794920,31.5719108581542970,50,109,99,85,66,15391,2147485403,2147766857,2147562816,2147797467,2147307904,2147473353,2147710445,2148243245,2536,7,13,16188
1342799684,5804,387.8299865722656000,17.7278995513916000,36.5125007629394500,236.9205017089843800,178.7855987548828000,17.7271595001220700,31.5354595184326170,49,107,100,83,66,15391,2147486336,2147766418,2147559835,2147795337,2147301622,2147475044,2147710528,2148243913,3257,7,13,32320
1342799827,5806,376.7000122070312500,17.8041000366210940,36.5248985290527340,237.4306030273437500,176.3282012939453000,17.8019599914550780,31.4780502319335940,50,106,99,84,67,15392,2147483282,2147765120,2147561645,2147795702,2147311771,2147476918,2147710939,2148241782,97,7,12,57042
1342799970,5805,365.6400146484375000,17.8285007476806640,36.5267982482910160,236.3236999511718800,175.5585937500000000,17.8253898620605470,31.5204105377197270,49,107,100,84,66,15387,2147486043,2147763840,2147561444,2147799360,2147309412,2147478802,2147709385,2148241088,552,7,13,51281
1342800103,5804,353.5100097656250000,17.9097003936767580,36.5396003723144500,236.8979034423828000,172.7911987304687500,17.9096393585205080,31.4555797576904300,49,112,99,83,67,15387,2147486500,2147762761,2147559917,2147793536,2147299574,2147477467,2147711826,2148242313,1130,7,12,47725
1342800202,5804,343.0299987792969000,17.9675998687744140,36.5489997863769500,237.1461944580078000,170.9373016357422000,17.9660892486572270,31.4191303253173830,50,108,99,84,67,15391,2147486345,2147764269,2147566829,2147796489,2147311378,2147477202,2147712694,2148240109,1865,7,13,53078
1342800312,5802,331.2300109863281000,18.0221996307373050,36.5587997436523440,237.3715972900390600,169.0959930419922000,18.0221595764160160,31.3836593627929700,50,107,98,85,66,15390,2147485065,2147766299,2147570532,2147793097,2147303405,2147477558,2147714139,2148240045,2579,7,13,31855
1342800429,5802,320.1000061035156000,18.0757999420166000,36.5639991760253900,237.0395965576172000,167.4432067871093800,18.0724906921386720,31.3769702911376950,50,108,99,85,67,15387,2147487405,2147767250,2147574537,2147793307,2147308589,2147476224,2147720274,2148241801,3421,7,13,4128
1342800561,5806,309.4800109863281000,18.1210002899169920,36.5661010742187500,235.7427978515625000,165.8744964599609400,18.1202697753906250,31.4180698394775400,50,110,101,85,67,15385,2147484790,2147766966,2147576384,2147796809,2147304265,2147478427,2147720310,2148241408,405,7,13,27959
1342800696,5802,298.7900085449219000,18.2007999420166000,36.5772018432617200,235.0198059082031200,163.4282073974609400,18.1947803497314450,31.4196891784667970,50,110,100,84,67,15384,2147483181,2147770980,2147584448,2147794916,2147306477,2147479643,2147724955,2148241380,992,7,12,16775
1342800839,5804,287.7000122070312500,18.2535991668701170,36.5838012695312500,235.3099975585937500,161.5825958251953000,18.2510108947753900,31.3808994293212900,50,111,100,84,67,15383,2147487744,2147771062,2147595364,2147793691,2147306276,2147483684,2147729563,2148242825,1702,7,13,60133
1342801004,5804,274.6900024414062500,18.3297996520996100,36.5858993530273440,233.2127990722656200,159.1412963867187500,18.3253803253173830,31.4492797851562500,50,111,100,84,66,15380,2147486025,2147778724,2147612772,2147796342,2147308361,2147490678,2147738166,2148243849,2881,7,12,59435
1342801122,5806,263.3500061035156000,18.4374008178710940,36.5876007080078100,230.7395935058593800,155.2854003906250000,18.4428806304931640,31.5179996490478500,50,111,100,84,66,15381,2147490148,2147786660,2147635730,2147796123,2147306413,2147492937,2147754121,2148242779,113,7,12,6828
1342801243,5805,251.6600036621093800,18.5109004974365230,36.5845985412597660,232.9600067138672000,153.1250000000000000,18.5087299346923830,31.3810901641845700,50,108,100,85,66,15380,2147492800,2147794925,2147667355,2147793170,2147306825,2147499574,2147772361,2148243236,812,7,12,25160
1342801355,5801,241.1900024414062500,18.6088008880615230,36.5770988464355500,235.2438049316406200,149.6941070556640600,18.6133193969726560,31.2252292633056640,50,110,100,85,66,15378,2147490121,2147808219,2147697600,2147793892,2147313901,2147503826,2147792420,2148244269,1152,7,12,55420
1342801476,5803,230.4100036621093800,18.7078990936279300,36.5653991699218750,238.6461944580078000,146.6629943847656200,18.7057304382324220,31.0235195159912100,50,110,101,86,65,15381,2147490953,2147827318,2147750235,2147793673,2147314212,2147519195,2147820123,2148245120,1339,7,13,1404
1342801600,5802,219.6300048828125000,18.7630004882812500,36.5573997497558600,243.1638946533203000,144.8097991943359400,18.7622509002685550,30.7894001007080080,50,111,100,85,67,15381,2147499931,2147850697,2147827712,2147795904,2147305508,2147532297,2147862299,2148247497,1920,7,12,58520
1342801732,5803,208.3800048828125000,18.8817996978759770,36.5522994995117200,245.8500976562500000,140.5632934570312500,18.8917808532714840,30.6112403869628900,50,111,100,84,65,15378,2147504320,2147885147,2147924434,2147795483,2147317376,2147558628,2147919012,2148249801,2484,7,13,1006
1342801864,5802,197.4600067138672000,19.0461997985839840,36.5694007873535160,247.3406982421875000,135.8650054931640600,19.0351295471191400,30.4824295043945300,50,110,98,86,65,15375,2147508425,2147916278,2147999076,2147794102,2147309650,2147580809,2147969472,2148253952,2832,7,12,58612
1342801939,5804,191.6199951171875000,19.0827007293701170,36.5626983642578100,249.5496063232422000,134.4253997802734400,19.0790691375732420,30.3651008605957030,50,112,101,84,64,15373,2147511405,2147917988,2147986185,2147792009,2147316288,2147580800,2147958006,2148252004,146,7,12,63073
1342801994,5806,187.7700042724609400,19.1532001495361330,36.5742988586425800,250.0870971679687500,132.0590057373047000,19.1513004302978500,30.3104190826416000,51,113,100,85,64,15368,2147523803,2148009737,2148235602,2147795026,2147319085,2147643008,2148107300,2148260361,455,7,13,15143
1342802049,5802,183.9100036621093800,19.1739997863769530,36.5694007873535160,251.8076934814453000,131.1170959472656200,19.1800594329834000,30.2222690582275400,53,113,102,86,63,15371,2147525522,2148029056,2148278729,2147791213,2147331529,2147655817,2148131501,2148260388,422,7,12,53469
1342802104,5804,180.0899963378906200,19.2513999938964840,36.5880012512207000,252.5036010742187500,129.1842956542968800,19.2390708923339840,30.1669101715087900,52,115,100,85,65,15370,2147533641,2148068699,2148378157,2147794258,2147336429,2147678939,2148184073,2148263149,249,7,13,20467
1342802159,5803,176.2100067138672000,19.2441997528076170,36.5788993835449200,253.4694061279297000,129.0809936523437500,19.2422199249267580,30.1233100891113280,54,113,101,85,63,15368,2147545371,2148108425,2148483913,2147795026,2147340150,2147714505,2148250816,2148265417,392,7,13,61593
1342802247,5807,170.4499969482422000,19.2574005126953120,36.5756988525390600,254.7631072998047000,128.6329956054687500,19.2558994293212900,30.0614204406738280,57,116,101,86,63,15369,2147557814,2148162441,2148627849,2147794925,2147340242,2147749357,2148337792,2148270665,54,7,13,47609
1342802324,5805,166.1600036621093800,19.2819004058837900,36.5807991027832000,255.7756958007812500,127.8712997436523400,19.2791595458984380,30.0079898834228500,56,114,101,87,64,15370,2147568512,2148227565,2148779282,2147793865,2147349110,2147791744,2148420918,2148275675,98,7,12,40044
1342802390,5803,162.5500030517578000,19.2989997863769530,36.5830993652343750,256.5969848632812500,127.3253021240234400,19.2958393096923830,29.9656600952148440,59,117,101,86,63,15360,2147582235,2148280393,2148907986,2147797403,2147354870,2147828096,2148499986,2148281051,498,7,12,24440
1342802467,5803,158.4600067138672000,19.3071002960205080,36.5840988159179700,256.8017883300781000,127.0382003784179700,19.3046092987060550,29.9531307220459000,60,117,101,86,63,15365,2147602459,2148356242,2149083218,2147796598,2147368210,2147874596,2148597933,2148286793,833,7,12,31299
1342802547,5803,154.2500000000000000,19.3185005187988280,36.5844993591308600,257.0127868652344000,126.6997985839843800,19.3149394989013670,29.9397697448730470,62,117,100,86,64,15362,2147625170,2148450989,2149308425,2147799570,2147381275,2147940717,2148723117,2148292900,1003,7,13,44314
1342802624,5799,150.1699981689453000,19.3062000274658200,36.5758018493652340,256.8225097656250000,126.9990005493164000,19.3057994842529300,29.9515800476074220,73,124,101,86,64,15347,2147653211,2148544640,2149518473,2147801572,2147395062,2147989641,2148834496,2148303396,1308,7,12,27421
1342802701,5801,146.1799926757812500,19.3176994323730470,36.5746994018554700,256.4155883789062500,126.6927032470703100,19.3151607513427730,29.9651908874511720,85,125,102,87,65,15330,2147685504,2148657984,2149782582,2147805110,2147409161,2148050733,2148956571,2148309421,1829,7,12,50334
1342802778,5801,142.1399993896484400,19.3398990631103500,36.5789985656738300,256.5134887695312500,125.9770965576171900,19.3370208740234380,29.9516296386718750,92,128,104,87,62,15319,2147732032,2148818624,2150120777,2147806765,2147426349,2148118866,2149107821,2148320027,2139,7,12,42865
1342802847,5805,138.5599975585937500,19.3507003784179700,36.5805015563964840,256.9366149902344000,125.6261978149414000,19.3477306365966800,29.9291496276855470,94,130,102,87,63,15317,2147777261,2148977892,2150493824,2147815040,2147434633,2148191021,2149266038,2148328585,2317,7,13,44253
1342802924,5804,134.6000061035156200,19.3565006256103500,36.5800018310546900,257.0174865722656000,125.4726028442382800,19.3524208068847660,29.9237098693847660,104,129,102,88,64,15306,2147846976,2149184128,2150951716,2147819382,2147473106,2148279561,2149448630,2148342930,2572,7,12,59411
1342803001,5805,130.7299957275390600,19.3645000457763670,36.5805015563964840,257.1913146972656000,125.1514968872070300,19.3622303009033200,29.9121208190917970,111,138,103,88,64,15295,2147922148,2149430134,2151457892,2147824384,2147502290,2148373092,2149649453,2148359177,2701,7,13,3200
1342803089,5801,126.4300003051757800,19.3887004852294920,36.5792999267578100,257.5459899902344000,124.4138031005859400,19.3847599029541000,29.8874301910400400,133,140,104,91,66,15281,2148060105,2149839387,2152299913,2147839990,2147549229,2148517897,2149955712,2148383323,2437,7,12,45870
1342803169,5804,122.7399978637695300,19.4241008758544920,36.5830993652343750,258.7672119140625000,123.2416992187500000,19.4205703735351560,29.8204803466796880,140,141,105,89,63,15272,2148195684,2150255286,2153083949,2147849609,2147585984,2148646528,2150209398,2148405083,2374,7,13,53150
1342803257,5802,118.8799972534179700,19.4549999237060550,36.5839996337890600,260.0902099609375000,122.2968978881836000,19.4494400024414060,29.7522792816162100,155,138,104,89,64,15261,2148398884,2150843648,2154162614,2147869860,2147654802,2148811949,2150528996,2148437440,2015,7,12,20417
1342803356,5803,114.6500015258789000,19.4937992095947270,36.5881004333496100,263.0046081542969000,121.0808029174804700,19.4865894317626950,29.6151008605957030,153,137,104,87,67,15243,2148740900,2151783049,2155774637,2147899785,2147757586,2149098276,2151060608,2148484013,2081,7,12,8726
1342803444,5802,110.6500015258789000,19.4972991943359380,36.5802993774414060,265.1021118164062500,120.8218002319336000,19.4945106506347660,29.5249195098876950,153,136,105,89,67,15243,2149225965,2153084096,2157890422,2147942573,2147902573,2149488009,2151729243,2148546002,2396,7,13,3776
1342803534,5804,106.4000015258789000,19.5526008605957030,36.5820999145507800,266.2305908203125000,119.1705017089843800,19.5449695587158200,29.4574909210205080,141,136,104,89,66,15233,2149986907,2154991689,2160878034,2148007213,2148126400,2150096082,2152781814,2148644205,2323,7,12,60646
1342803611,5802,102.7200012207031200,19.5723991394042970,36.5801010131835940,267.2276916503906000,118.4651031494140600,19.5665302276611330,29.4078197479248050,149,137,105,89,66,15218,2150611739,2156464054,2162950710,2148066395,2148326217,2150595922,2153569819,2148723657,2753,7,13,63874
1342803699,5806,98.5899963378906200,19.6133003234863280,36.5811996459960940,266.6312866210937500,117.0687026977539000,19.6092090606689450,29.4143505096435550,158,140,107,89,66,15189,2151618953,2158727561,2166068964,2148162139,2148635282,2151347830,2154703122,2148842441,3031,7,12,41153
1342803754,5804,96.1100006103515600,19.6236991882324220,36.5811996459960940,267.4450988769531000,116.7158966064453100,19.6200008392334000,29.3766994476318360,146,136,105,90,65,15190,2152356946,2160282450,2168089700,2148227227,2148881609,2151936347,2155557997,2148931968,3378,7,13,57584
1342803811,5804,93.7099990844726600,19.6767005920410160,36.5835990905761700,267.9577941894531000,115.1174011230468800,19.6688594818115230,29.3355293273925780,117,135,105,90,64,15219,2153306852,2162181174,2170506624,2148321746,2149212361,2152676809,2156551277,2149041737,3586,7,13,21102
1342803866,5803,91.6399993896484400,19.7005004882812500,36.5852012634277340,269.1654052734375000,114.2979965209961000,19.6939201354980470,29.2764396667480470,108,135,105,89,66,15231,2154445494,2164508470,2173540251,2148415661,2149612781,2153642029,2157884690,2149174226,153,8,13,31641
1342803921,5805,89.8499984741211000,19.7224998474121100,36.5845985412597660,269.9952087402344000,113.4382019042968800,19.7202091217041000,29.2320404052734380,103,131,104,88,65,15237,2155622025,2166732644,2176284096,2148516681,2150079625,2154663972,2159204105,2149304393,493,7,12,35514
1342803976,5803,88.2500000000000000,19.7492008209228500,36.5852012634277340,271.1373901367187500,112.6548995971679700,19.7441596984863280,29.1762905120849600,100,135,105,90,64,15223,2156718034,2168612470,2178313499,2148609645,2150499885,2155504576,2160144192,2149409920,648,7,13,14930
1342804053,5801,86.1699981689453100,19.7887992858886720,36.5848999023437500,272.1000061035156000,111.5121994018554700,19.7791099548339840,29.1234397888183600,99,136,106,89,64,15229,2158154550,2170807213,2180304310,2148712164,2151092598,2156652196,2161364434,2149534180,853,8,12,44354
1342804139,5803,83.7399978637695300,19.8561000823974600,36.5849990844726560,274.1091918945312500,108.9831008911132800,19.8564605712890620,29.0118904113769530,93,136,105,90,65,15224,2160790454,2175172946,2185212425,2148940452,2152175158,2158791625,2163877805,2149781650,1150,7,13,14851
1342804194,5800,81.5800018310546900,19.8801994323730470,36.5863990783691400,275.6771850585937500,108.0686035156250000,19.8844394683837900,28.9387493133544920,92,137,106,89,64,15216,2163160667,2178799387,2188922249,2149148013,2153150262,2160597376,2165855296,2149984045,1250,7,12,38476
1342804249,5803,79.3600006103515600,19.9768009185791000,36.5877990722656250,276.2807006835937500,105.4224014282226600,19.9654102325439450,28.8817291259765620,88,136,106,91,61,15216,2165907501,2182816219,2192974985,2149393755,2154316516,2162667346,2168040521,2150212644,1228,7,13,65329
1342804304,5803,77.1399993896484400,20.0506992340087900,36.5889015197753900,276.6774902343750000,103.6359024047851600,20.0200901031494140,28.8437805175781250,84,139,106,91,61,15199,2167173065,2183562368,2192282532,2149450779,2154951990,2163343634,2168145536,2150243821,1244,7,13,42810
1342804359,5803,75.0299987792968800,20.2205009460449220,36.5901985168457000,278.1510925292969000,97.3104934692382800,20.2137603759765620,28.7073001861572270,82,138,107,92,63,15200,2169886893,2187227803,2195818029,2149698285,2156135469,2165197138,2169847040,2150437741,961,7,12,18301
1342804414,5802,73.0999984741211000,20.3731994628906250,36.5928993225097660,280.2450866699219000,92.7260131835937500,20.3542194366455080,28.5695991516113280,80,142,107,91,64,15194,2175171081,2195360329,2205061348,2150263643,2158504649,2169437577,2174672027,2150948278,484,6,13,12442
1342804491,5807,70.0000000000000000,20.4529991149902340,36.5959014892578100,281.8602905273437500,89.6086883544921900,20.4497604370117200,28.4691791534423830,78,141,105,93,62,15184,2182732242,2205915117,2216364736,2151135040,2161984576,2174991076,2180451117,2151609188,418,7,12,36529
1342804546,5804,67.0400009155273400,20.5058994293212900,36.5966987609863300,282.9768981933594000,87.5377807617187500,20.5132598876953120,28.4011306762695300,75,140,107,91,61,15172,2189181750,2214138505,2224740077,2151947410,2165316452,2180120429,2185647643,2152223625,578,7,12,55775
1342804601,5806,64.1999969482421900,20.6762008666992200,36.5964012145996100,283.3294982910156000,83.6175537109375000,20.6334896087646500,28.3391494750976560,73,143,109,93,60,15172,2195023478,2220709193,2230631424,2152752393,2168367597,2184238528,2189244589,2152694445,584,7,13,21193
1342804656,5806,61.7200012207031250,20.7441997528076170,36.5971984863281250,283.5451049804687500,80.7991027832031200,20.7199707031250000,28.2961292266845700,72,142,109,93,62,15159,2201594953,2228069312,2237400228,2153619995,2171844836,2188830070,2193298998,2153240768,781,7,12,23104
1342804711,5802,59.5999984741210940,20.9246997833251950,36.5969009399414060,283.4088134765625000,74.8025436401367200,20.9040603637695300,28.2270698547363280,71,143,107,92,60,15161,2207813632,2234775067,2243375734,2154399241,2175682697,2193911872,2197793627,2153826368,922,7,13,30070
1342804766,5803,57.9799995422363300,21.0072002410888670,36.5979003906250000,283.7701110839844000,71.8147430419921900,20.9958305358886720,28.1765594482421880,71,139,107,92,59,15173,2214602322,2242854509,2251632978,2155449508,2179637814,2199186496,2202703853,2154474496,1235,7,13,28583
1342804834,5805,56.3100013732910160,21.0991992950439450,36.5960006713867200,284.0892944335937500,69.3196563720703100,21.0725002288818360,28.1338596343994140,69,142,113,93,59,15167,2222584420,2251972260,2260353664,2156595766,2183723026,2204158381,2206621604,2155048621,832,8,12,33791
1342805009,5800,52.4700012207031250,21.3195991516113280,36.5979003906250000,283.9961853027344000,61.5670089721679700,21.3108901977539060,28.0420608520507800,66,142,108,93,60,15167,2239881042,2270306761,2277913179,2159590418,2194455058,2217362230,2218243328,2156735817,1060,7,13,28222
1342805043,5805,51.5400009155273440,21.3288002014160160,36.5979995727539060,284.3117980957031000,61.0086898803710940,21.3280601501464840,28.0233402252197270,65,144,109,92,56,15165,2240412507,2269764361,2276655369,2159984548,2196726601,2220110637,2220397184,2157115520,881,7,13,15202
1342805112,5805,49.6899986267089840,21.3621006011962900,36.5918006896972660,284.2691955566406000,59.7270317077636700,21.3675003051757800,28.0092506408691400,65,141,109,92,58,15167,2249645129,2280391396,2287855296,2162157705,2201954395,2226304265,2225670665,2158018532,683,7,12,49836
1342805180,5804,47.7400016784668000,21.4118003845214840,36.5914001464843750,283.8001098632812500,57.8656997680664060,21.4247894287109380,28.0038604736328120,63,142,109,93,64,15164,2236882569,2258864457,2260994057,2159871067,2198929819,2219519762,2216800649,2156973732,548,8,12,34839
1342805237,5803,45.4500007629394500,21.5478000640869140,36.5840988159179700,283.5895080566406000,53.8265609741210940,21.5491504669189450,27.9621906280517580,63,146,108,93,62,15155,2275986459,2307078701,2313122029,2167727698,2218790061,2245696192,2241857499,2160711616,112,7,12,41235
1342805282,5805,43.7999992370605500,21.6308994293212900,36.5803985595703100,283.5535888671875000,51.1687202453613300,21.6310291290283200,27.9308490753173830,62,143,111,93,61,15135,2279651163,2307863734,2312030665,2168990710,2223965668,2250754441,2245570267,2161161846,3128,8,13,22714
1342805351,5805,41.6300010681152340,21.8384990692138670,36.5620002746582000,282.8947143554687500,46.0296592712402340,21.7894191741943360,27.8926601409912100,62,149,108,92,57,15148,2294868946,2322685878,2326124123,2172547968,2234825819,2262060233,2254648466,2162938788,2832,7,13,63088
1342805444,5803,39.8300018310546900,22.0230998992919920,36.5559997558593750,282.3685913085937500,38.4065284729003900,22.0246105194091800,27.8192100524902340,60,144,111,93,61,15154,2309302345,2338535113,2342556425,2176286985,2246887670,2275006628,2264862052,2165009600,513,7,12,48783
1342805547,5805,37.8499984741210940,22.4517002105712900,36.5668983459472660,281.0140075683594000,25.0995998382568360,22.4358406066894530,27.7076606750488280,61,143,108,94,63,15138,2323089225,2350493659,2353662070,2180754706,2256898880,2284386889,2272140781,2166823771,2866,7,12,58230
1342805628,5805,35.9199981689453100,22.5636997222900400,36.5629005432128900,280.3510131835937500,20.8003292083740230,22.5688896179199220,27.6803398132324220,60,148,109,94,56,15145,2324052827,2348457499,2350793965,2183656027,2264860845,2292863524,2277960502,2167660041,3315,8,12,28065
1342805769,5805,33.8699989318847660,22.6933994293212900,36.5561981201171900,279.6267089843750000,16.0361804962158200,22.7164497375488280,27.6498794555664060,58,142,107,92,57,15131,2342257197,2367299346,2370625289,2190400649,2278533321,2306142116,2288745435,2170335515,3539,8,13,24541
1342805884,5805,31.7700004577636720,23.0193004608154300,36.5101013183593750,277.2370910644531000,5.9672451019287110,23.0287094116210940,27.6178607940673830,58,145,107,93,59,15136,2352902601,2374631734,2376949522,2195529709,2296775945,2322586733,2299843977,2173067474,695,7,13,60970